OBJECT A, 68691

Orbit data source: Space-Track

You're viewing an Uncataloged Satellite

Recently launched and/or uncataloged satellites may have evolving metadata. Metadata may include but not limited to: Owner, Maufacturer, Bus, Motor, and Mission.

OBJECT A, 68691 is a satellite owned by Changguang WJ (CN) in SSO that was launched on Tue, 14 Apr 2026 UTC via a LIJIAN-1 launch vehicle from the Jiuquan Satellite Launch Center, China (JSC). Unknown objects in Earth's orbit typically refer to objects detected orbiting the Earth but have not yet been identified or cataloged. These objects could be anything from previously untracked satellites, spent rocket stages, debris from satellite collisions, or even natural meteoroids temporarily captured by Earth's gravity.

Loading next visibility...
Identifier
68691, 2026-080A
Orbit
SSO
Country
Flag of CNCN / PRC
Related business
Manufacturer
Changguang WJ
Mission
Operational spacecraft
Bus & Motor
JL-1GF07, Unknown motor
Mass
~50 kg wet, ~50 kg dry
Launch date (UTC)
2026-04-14 (1 month ago)
Launch vehicle
LIJIAN-1
Launch site
Jiuquan Satellite Launch Center, China (JSC)
Object type
Unknown
Shape & HBR
Unknown shape, 1.1 m
Radar Cross Section
RCS unknown

Expand to show TLE details & history
Last TLE update: 3 days ago

TLE from 3 days ago
0 OBJECT A
1 68691U 26080A   26136.25153086  .00000181  00000-0  15714-4 0  9996
2 68691  97.6627 211.8277 0012813 167.1700 192.9856 15.08581612  4847
Epoch: 2026-05-16T06:02Z
TLE epoch observation values (Epoch: 2026-05-16T06:02:12.266Z)
Latitude
-0.00009°
Longitude
-112.69457°
Altitude
552.241 km
Speed
7.581 km/s
True Right ascension
14h 07m 18s
True Declination
0° 00' 00"
Sunlit
Object was in full shadow at epoch
Visualization orbit readout
Latitude
Unknown
Longitude
Unknown
Altitude
Unknown
Speed
Unknown
Apparent Right ascension
Unknown
Apparent Declination
Unknown
Sunlit
N/A
Visualization observer readout
Local Sidereal Time
10:14:58
Azimuth
Unknown
Elevation
Unknown
Doppler factor
Unknown
Orbital elements
Apogee altitude
546.387 km
Perigee altitude
528.664 km
Semi-major axis
6,915.662 km
Eccentricity
0.00128
Inclination
97.6627°
RAAN
211.8277°
Arg. of periapsis
167.17°
True anomaly
192.95266°
Mean anomaly
192.9856°
Eccentric anomaly
192.96912°
Mean motion
3.77392 °/min
Orbital period
95.39 mins
BSTAR
0.000015714
Loading maneuver chart data...
Computing Atmospheric mass density...
Loading historical data...
Loading historical data...
Loading historical data...
Loading historical data...
Loading historical data...
Loading historical data...
Loading historical data...

Documentation

Showing up to 5 results
|